DW2849 Weather Reports


Display with metric or nautical units.
time (UTC)temp
F
wind
direction
speed
MPH
gust
MPH
rain 1hr
in
rain 24hr
in
rain mn
in
humidity
%
barometer
mb
20260902081844 57 138 1.0 3.0 0.00 0.00 0.00 84 1015.9
20260902080744 57 200 0.0 2.0 0.00 0.00 0.00 84 1016.0
20260902075644 57 177 1.0 2.0 0.00 0.00 0.00 84 1016.0
20260902074353 57 135 0.0 2.0 0.00 0.00 0.00 84 1016.0
20260902073253 57 104 0.0 2.0 0.00 0.00 0.00 84 1015.9
20260902072153 57 141 1.0 2.0 0.00 0.00 0.00 84 1015.9
20260902071053 57 34 0.0 4.0 0.00 0.00 0.00 84 1015.9
20260902065953 57 253 1.0 2.0 0.00 0.00 0.00 84 1015.9
20260902064701 57 220 0.0 2.0 0.00 0.00 0.00 84 1015.9
20260902063601 57 200 1.0 2.0 0.00 0.00 0.00 84 1015.8
20260902062501 57 161 1.0 2.0 0.00 0.00 0.00 84 1015.7
20260902061402 57 200 1.0 2.0 0.00 0.00 0.00 84 1015.6
20260902060301 57 200 1.0 2.0 0.00 0.00 0.00 84 1015.8
20260902055201 57 180 0.0 2.0 0.00 0.00 0.00 84 1016.0
20260902054102 57 96 1.0 2.0 0.00 0.00 0.00 83 1015.9
20260902053001 57 248 1.0 2.0 0.00 0.00 0.00 83 1015.9
20260902051711 57 180 1.0 2.0 0.00 0.00 0.00 84 1015.8
20260902050419 57 270 1.0 2.0 0.00 0.00 0.00 83 1015.9
20260902045319 57 180 1.0 4.0 0.00 0.00 0.00 83 1015.7
20260902044219 57 180 1.0 2.0 0.00 0.00 0.00 83 1015.9
20260902043119 58 225 1.0 3.0 0.00 0.00 0.00 82 1015.9
20260902042020 58 244 2.0 3.0 0.00 0.00 0.00 82 1015.8
20260902040727 58 225 1.0 2.0 0.00 0.00 0.00 82 1015.7
20260902035627 58 219 1.0 2.0 0.00 0.00 0.00 82 1015.6
20260902034528 58 270 1.0 2.0 0.00 0.00 0.00 82 1015.5
20260902033428 58 225 1.0 4.0 0.00 0.00 0.00 82 1015.5
20260902032328 58 225 1.0 3.0 0.00 0.00 0.00 82 1015.5
20260902031228 58 241 1.0 3.0 0.00 0.00 0.00 81 1015.6
20260902030127 58 202 1.0 2.0 0.00 0.00 0.00 81 1015.5
20260902025027 58 236 1.0 3.0 0.00 0.00 0.00 81 1015.4
20260902023928 59 0 0.0 6.0 0.00 0.00 0.00 80 1015.3
20260902022827 59 217 1.0 6.0 0.00 0.00 0.00 80 1015.5
20260902021535 59 270 2.0 4.0 0.00 0.00 0.00 80 1015.5
20260902020244 59 260 2.0 6.0 0.00 0.00 0.00 79 1015.4
20260902015144 59 248 3.0 4.0 0.00 0.00 0.00 80 1015.4
20260902014044 60 244 2.0 4.0 0.00 0.00 0.00 79 1015.5
20260902012944 60 222 3.0 4.0 0.00 0.00 0.00 80 1015.5
20260902011844 60 222 4.0 5.0 0.00 0.00 0.00 80 1015.4
20260902010552 61 225 3.0 5.0 0.00 0.00 0.00 79 1015.4
20260902005452 61 225 3.0 10.0 0.00 0.00 0.00 78 1015.3
20260902004352 61 205 3.0 4.0 0.00 0.00 0.00 78 1015.3
20260902003253 61 221 3.0 11.0 0.00 0.00 0.00 77 1015.3
20260902002153 62 241 3.0 8.0 0.00 0.00 0.00 75 1015.3
20260902000901 63 253 5.0 7.0 0.00 0.00 0.00 74 1015.3
20260901235801 63 257 3.0 4.0 0.00 0.00 0.00 73 1015.3
20260901234701 63 190 3.0 4.0 0.00 0.00 0.00 73 1015.3
20260901233602 63 208 3.0 6.0 0.00 0.00 0.00 73 1015.3
20260901232501 63 190 4.0 6.0 0.00 0.00 0.00 72 1015.4
20260901231210 63 215 3.0 7.0 0.00 0.00 0.00 73 1015.4
20260901230110 64 212 4.0 6.0 0.00 0.00 0.00 71 1015.4
20260901225010 64 186 3.0 4.0 0.00 0.00 0.00 71 1015.5
20260901223911 63 235 3.0 9.0 0.00 0.00 0.00 73 1015.5
20260901222810 63 264 2.0 6.0 0.00 0.00 0.00 74 1015.6
20260901221710 64 215 3.0 5.0 0.00 0.00 0.00 73 1015.7
20260901220610 64 199 3.0 6.0 0.00 0.00 0.00 72 1015.7
20260901215318 0 205 2.0 4.0 0.00 0.00 0.00 1015.7
20260901214219 65 222 4.0 8.0 0.00 0.00 0.00 71 1015.8
20260901213119 64 231 3.0 10.0 0.00 0.00 0.00 74 1015.7
20260901212019 64 245 4.0 8.0 0.00 0.00 0.00 71 1015.7
20260901210919 67 275 3.0 10.0 0.00 0.00 0.00 67 1015.6
20260901205819 67 218 4.0 11.0 0.00 0.00 0.00 67 1015.5
20260901204528 63 220 3.0 6.0 0.00 0.00 0.00 71 1015.5
20260901203427 62 183 2.0 9.0 0.00 0.00 0.00 72 1015.6
20260901202327 61 215 3.0 6.0 0.00 0.00 0.00 74 1015.7
20260901201036 62 225 3.0 4.0 0.00 0.00 0.00 75 1015.9
20260901195936 62 221 3.0 6.0 0.00 0.00 0.00 75 1016.0
20260901194836 61 206 3.0 4.0 0.00 0.00 0.00 77 1016.0
20260901193736 61 200 2.0 5.0 0.00 0.00 0.00 77 1016.0
20260901192636 62 211 3.0 5.0 0.00 0.00 0.00 75 1015.9
20260901191536 64 165 3.0 8.0 0.00 0.00 0.00 73 1015.9
20260901190245 63 341 3.0 8.0 0.00 0.00 0.00 75 1015.9
20260901185145 60 231 2.0 5.0 0.00 0.00 0.00 79 1016.0
20260901183854 60 183 2.0 5.0 0.00 0.00 0.00 78 1015.9
20260901182754 60 236 3.0 5.0 0.00 0.00 0.00 79 1016.0
20260901181654 60 273 2.0 4.0 0.00 0.00 0.00 80 1015.9
20260901180554 60 232 1.0 9.0 0.00 0.00 0.00 80 1015.8
20260901175454 59 308 2.0 3.0 0.00 0.00 0.00 81 1015.8
20260901174354 59 180 1.0 2.0 0.00 0.00 0.00 82 1015.7
20260901173102 59 222 2.0 2.0 0.00 0.00 0.00 83 1015.6
20260901172003 58 197 1.0 2.0 0.00 0.00 0.00 83 1015.4
20260901170903 58 186 1.0 3.0 0.00 0.00 0.00 83 1015.3
20260901165803 58 225 1.0 2.0 0.00 0.00 0.00 83 1015.2
20260901164511 57 245 1.0 3.0 0.00 0.00 0.00 83 1015.2
20260901163411 58 236 1.0 4.0 0.00 0.00 0.00 82 1015.2
20260901162311 58 254 2.0 4.0 0.00 0.00 0.00 83 1015.1
20260901161211 57 251 1.0 5.0 0.00 0.00 0.00 83 1015.0
20260901160112 57 220 2.0 3.0 0.00 0.00 0.00 83 1015.0
20260901155011 57 244 3.0 6.0 0.00 0.00 0.00 83 1015.0
20260901153720 56 205 2.0 4.0 0.00 0.00 0.00 84 1014.9
20260901152620 56 232 1.0 3.0 0.00 0.00 0.00 84 1014.7
20260901151520 56 232 1.0 3.0 0.00 0.00 0.00 84 1014.6
20260901150422 56 298 1.0 4.0 0.00 0.00 0.00 83 1014.5
20260901145129 56 273 1.0 3.0 0.00 0.00 0.00 83 1014.4
20260901144029 55 245 1.0 2.0 0.00 0.00 0.00 84 1014.2
20260901142929 55 273 2.0 4.0 0.00 0.00 0.00 84 1014.0
20260901141829 55 231 1.0 3.0 0.00 0.00 0.00 84 1013.8
20260901140730 55 315 1.0 2.0 0.00 0.00 0.00 84 1013.7
20260901135629 56 259 2.0 6.0 0.00 0.00 0.00 84 1013.6
20260901134338 56 241 1.0 3.0 0.00 0.00 0.00 84 1013.4
20260901133237 56 265 2.0 5.0 0.00 0.00 0.00 83 1013.4
20260901132138 56 231 1.0 5.0 0.00 0.00 0.00 83 1013.2
20260901131041 56 225 1.0 2.0 0.00 0.00 0.00 83 1013.1
20260901125937 56 270 0.0 4.0 0.00 0.00 0.00 83 1013.0
20260901124837 56 214 2.0 4.0 0.00 0.00 0.00 83 1012.9
20260901123737 55 197 1.0 2.0 0.00 0.00 0.00 83 1013.0
20260901122638 55 180 1.0 3.0 0.00 0.00 0.00 83 1012.9
20260901121538 55 183 1.0 2.0 0.00 0.00 0.00 83 1012.7
20260901120246 55 248 2.0 4.0 0.00 0.00 0.00 83 1012.9
20260901114955 55 321 1.0 2.0 0.00 0.00 0.00 83 1012.9
20260901113855 55 298 1.0 2.0 0.00 0.00 0.00 83 1012.9
20260901112755 55 242 1.0 2.0 0.00 0.00 0.00 83 1012.8
20260901111655 56 267 2.0 3.0 0.00 0.00 0.00 83 1012.8
20260901110555 56 326 2.0 4.0 0.00 0.00 0.00 83 1012.9
20260901105455 56 295 2.0 4.0 0.00 0.00 0.00 83 1013.1
20260901104355 55 273 2.0 6.0 0.00 0.00 0.00 83 1013.2
20260901103104 55 242 2.0 4.0 0.00 0.00 0.00 83 1013.3
20260901102004 55 306 2.0 5.0 0.00 0.00 0.00 83 1013.1
20260901100904 54 264 2.0 4.0 0.00 0.00 0.00 83 1013.0
20260901095804 54 251 2.0 4.0 0.00 0.00 0.00 83 1013.0
20260901094704 53 231 1.0 3.0 0.00 0.00 0.00 83 1012.9
20260901093604 53 225 1.0 2.0 0.00 0.00 0.00 82 1012.9
20260901092503 53 230 1.0 2.0 0.00 0.00 0.00 83 1012.8
20260901091020 52 250 1.0 4.0 0.00 0.00 0.00 83 1012.8
20260901085920 52 270 1.0 3.0 0.00 0.00 0.00 83 1012.8
20260901084820 52 202 0.0 0.0 0.00 0.00 0.00 83 1012.9
20260901083720 52 180 0.0 0.0 0.00 0.00 0.00 83 1012.8